Location: Jackson Park
(37.2862°N, 79.9123°W)
Time: 10:50:45
(UTC+00:00)

S-56A Canister/Altair - Pass Details

Date: 13 May 2026
Orbit: 632 x 2484 km, 38.9° (Epoch: 9 June)

Event Time Altitude Azimuth Distance (km) Brightness Sun altitude
Rises 01:28:34 0° 227° (SW) 3,093 10.8 -12.8°
Reaches altitude 10° 01:31:11 10° 218° (SW) 2,070 9.8 -13.2°
Maximum altitude 01:35:19 35° 152° (SSE) 1,020 7.7 -13.9°
Enters shadow 01:37:55 19° 97° (E) 1,520 8.5 -14.3°
Drops below altitude 10° 01:39:27 10° 86° (E) 2,064 - -14.6°
Sets 01:42:03 0° 77° (ENE) 3,083 - -15.0°
